Osoyoos, British Columbia

6:27 PM PDT on March 29, 2017 (GMT -0700)
Osoyoos

Weather History for CWYY - March, 2014

Change the Weather History Date:

Saturday, March 15, 2014

  Actual Average (CYYF) Record (CYYF)
Temperature  
Mean Temperature 44 °F -  
Max Temperature 55 °F 46 °F 63 °F (2013)
Min Temperature 32 °F 30 °F 21 °F (2007)
Degree Days  
Heating Degree Days 22    
Moisture  
Dew Point 32 °F    
Average Humidity 57    
Maximum Humidity 81    
Minimum Humidity 28    
Precipitation  
Precipitation 0.00 in - - ()
Sea Level Pressure  
Sea Level Pressure 30.25 in    
Wind  
Wind Speed 4 mph ()    
Max Wind Speed 14 mph    
Max Gust Speed 23 mph    
Averages and records for this station are not official NWS values.
T = Trace of Precipitation, MM = Missing Value Source: Averaged Metar Reports

Daily Weather History Graph

Daily Weather History Graph

Search for Another Location

Airport or City:

Trip Planner

Search our weather history database for the weather conditions in past years. The results will help you decide how hot, cold, wet, or windy it might be!

Date:

Astronomy

Mar. 15, 2014 Rise Set
Actual Time 7:10 AM PDT 7:03 PM PDT
Civil Twilight 6:39 AM PDT 7:34 PM PDT
Nautical Twilight 6:02 AM PDT 8:11 PM PDT
Astronomical Twilight 5:24 AM PDT 8:49 PM PDT
Moon 6:26 PM PDT (3/15) 6:28 AM PDT (3/15)
Length of Visible Light 12h 55m
Length of Day
11h 52m
Waxing Gibbous, 99% of the Moon is Illuminated
Mar 15
Waxing Gibbous
Mar 16
Full
Mar 23
Last Quarter
Mar 30
New
Apr 7
First Quarter

Hourly Weather History & Observations

Time (PDT) Temp. Windchill Dew Point Humidity Pressure Visibility Wind Dir Wind Speed Gust Speed Precip Events Conditions
12:00 AM 41.2 °F 39.2 °F 28.9 °F 62% 30.20 in - SE 3.5 mph - N/A   Unknown
1:00 AM 37.4 °F - 28.6 °F 70% 30.23 in - South 1.2 mph - N/A   Unknown
2:00 AM 40.3 °F 38.2 °F 29.7 °F 66% 30.26 in - SW 3.5 mph - N/A   Unknown
3:00 AM 33.1 °F - 27.7 °F 81% 30.27 in - North 1.2 mph - N/A   Unknown
4:00 AM 34.5 °F - 28.6 °F 79% 30.29 in - West 2.3 mph - N/A   Unknown
5:00 AM 36 °F - 30 °F 70% 30.29 in - West 1.2 mph - -  
5:00 AM 36.1 °F - 29.7 °F 77% 30.29 in - West 1.2 mph - N/A   Unknown
6:00 AM 37.9 °F 35.5 °F 30.0 °F 73% 30.32 in - SSW 3.5 mph - N/A   Unknown
7:00 AM 39.0 °F - 27.9 °F 64% 30.33 in - SE 1.2 mph - N/A   Unknown
8:00 AM 39.2 °F - 29.3 °F 68% 30.35 in - South 1.2 mph - N/A   Unknown
9:00 AM 40.6 °F 38.6 °F 28.4 °F 62% 30.38 in - SSE 3.5 mph - N/A   Unknown
10:00 AM 43.7 °F 41.1 °F 35.1 °F 72% 30.35 in - SSE 4.6 mph - N/A   Unknown
11:00 AM 46 °F - 34 °F 52% 30.32 in - SE 2.3 mph - -  
11:00 AM 45.9 °F - 34.2 °F 64% 30.32 in - SE 2.3 mph - N/A   Unknown
12:00 PM 47.8 °F - 35.1 °F 61% 30.29 in - SSE 9.2 mph - N/A   Unknown
1:00 PM 49.6 °F - 29.5 °F 46% 30.30 in - South 9.2 mph - N/A   Unknown
2:00 PM 50.9 °F - 30.4 °F 45% 30.25 in - SSE 13.8 mph 23.0 mph N/A   Unknown
3:00 PM 53.8 °F - 30.9 °F 42% 30.25 in - SSE 11.5 mph 23.0 mph N/A   Unknown
4:00 PM 53.2 °F - 30.7 °F 42% 30.25 in - SE 11.5 mph 19.6 mph N/A   Unknown
5:00 PM 55 °F - 31 °F 28% 30.22 in - SSE 11.5 mph - -  
5:00 PM 54.9 °F - 32.9 °F 43% 30.22 in - SSE 11.5 mph 19.6 mph N/A   Unknown
6:00 PM 54.9 °F - 34.3 °F 46% 30.19 in - SE 6.9 mph - N/A   Unknown
7:00 PM 54.0 °F - 35.2 °F 49% 30.17 in - ESE 6.9 mph - N/A   Unknown
8:00 PM 53.1 °F - 34.2 °F 49% 30.14 in - SE 6.9 mph - N/A   Unknown
9:00 PM 51.4 °F - 34.5 °F 52% 30.14 in - SSE 6.9 mph - N/A   Unknown
10:00 PM 52.9 °F - 34.0 °F 49% 30.12 in - SE 8.1 mph - N/A   Unknown
11:00 PM 51 °F - 34 °F 39% 30.10 in - South 4.6 mph - -  
11:00 PM 49.1 °F - 33.6 °F 55% 30.10 in - South 4.6 mph - N/A   Unknown